www.pogodaiklimat.ru

Погода и климат >> Архив погоды >> Китай >> Harbin


АРХИВ ПОГОДЫ в Harbin

Время (UTC), дата Ветер
(напр.,м/с)
 
Видим.   Явления Облачность Т
(С)
Тd
(С)
f
(%)
Тe
(С)
Тes
(С)
Комфортность P
(гПа)
Po
(гПа)
Тmin
(С)
Tmax
(С)
R
(мм)
R24
(мм)
S
(см)
18 17.09 З 2 30 км н/о +13.5 +5.2 57 +13 +13 тепло 1015.0 1020.2 +22.3
21 17.09 З 2 30 км н/о +12.5 +5.2 61 +12 +12 по сезону 1014.8 1015.0
00 18.09 З 4 27 км н/о +15.0 +7.1 59 +14 +14 по сезону 1015.0 1000.8
03 18.09 С 2 30 км 3/3
[]
+20.9 +10.4 51 +23 +31 комфорт 1014.6 995.6
06 18.09 В 3 21 км н/о +22.5 +9.7 44 +24 +24 комфорт 1014.0 999.9 +10.8
09 18.09 С 1 30 км ясно +20.2 +11.7 58 +23 +23 комфорт 1013.5 1014.0
12 18.09 С 1 23 км 3/3
[]
+11.6 +7.9 78 +12 +12 по сезону 1014.7 1000.4
15 18.09 З 1 н/о дымка ?/? +9.6 +7.2 85 +9 +9 по сезону 1015.1 996.1
18 18.09 З 1 3200 м дымка н/о +8.3 +7.7 96 +7 +7 по сезону 1015.5 1001.3 +22.7
21 18.09 штиль 0 2500 м дымка н/о +6.4 +6.0 97 +5 +5 холодно 1016.0 1016.0
00 19.09 ЮВ 1 22 км 3/3
[]
+16.5 +10.6 68 +17 +20 тепло 1016.5 1002.2
03 19.09 В 2 20 км 3/3
[]
+21.8 +9.7 46 +23 +31 комфорт 1015.9 996.7
06 19.09 В 1 30 км 1/1
[]
+23.0 +6.3 34 +24 +31 комфорт 1014.6 1000.4 +6.4
09 19.09 В 1 30 км 1/1
[]
+20.5 +12.0 58 +24 +24 комфорт 1014.1 1014.0
12 19.09 штиль 0 30 км н/о +11.9 +10.5 91 +11 +11 по сезону 1014.4 1000.2
15 19.09 В 1 1700 м дымка н/о +10.9 +10.0 94 +10 +10 по сезону 1014.7 995.7
18 19.09 В 2 н/о дымка н/о +9.5 +8.9 96 +8 +8 по сезону 1014.7 1000.6 +23.4
21 19.09 В 1 7000 м дымка н/о +9.8 +9.2 96 +9 +9 по сезону 1014.6 1015.0
00 20.09 В 2 15 км ясно +16.3 +11.0 71 +16 +20 тепло 1014.8 1000.5
03 20.09 В 3 30 км ясно +22.5 +9.7 44 +24 +33 комфорт 1013.9 994.5
06 20.09 ЮВ 4 30 км ясно +24.7 +6.9 32 +25 +29 комфорт 1011.9 997.8 +9.4
09 20.09 ЮВ 1 30 км ясно +21.9 +11.9 53 +24 +24 комфорт 1011.0 1011.0
12 20.09 В 2 30 км ясно +15.6 +12.0 79 +16 +16 тепло 1011.3 997.2
15 20.09 В 3 30 км н/о +14.4 +10.6 78 +13 +13 тепло 1010.3 1010.0
18 20.09 В 2 30 км н/о +13.0 +10.5 85 +12 +12 тепло 1009.1 995.2 +25.0
21 20.09 С 1 12 км н/о +9.6 +8.5 93 +9 +9 по сезону 1008.7 1009.0
00 21.09 СВ 4 н/о слабый ливневой дождь 10/10 1000 м
[]
+13.6 +11.8 89 +12 +12 по сезону 1007.8 1013.4 1
03 21.09 СЗ 2 14 км н/о +18.7 +12.9 69 +20 +20 тепло 1007.9 1008.0
06 21.09 Ю 1 6000 м слабый дождь 10/10 1500 м
[]
+16.3 +14.7 90 +17 +17 по сезону 1006.6 992.5 +9.6 2
09 21.09 С 2 3400 м дымка {дождь} 10/10 1000 м
[]
+15.6 +14.1 91 +15 +15 по сезону 1004.8 1005.0
12 21.09 ЮЗ 2 7000 м слабый дождь 10/10 1000 м
[]
+14.1 +12.7 91 +14 +14 тепло 1005.1 991.0 0.2
15 21.09 Ю 2 2500 м дымка н/о +12.7 +11.9 95 +12 +12 по сезону 1005.1 1005.0
18 21.09 Ю 3 8000 м н/о +11.4 +9.5 88 +10 +10 по сезону 1005.1 1010.0 +19.0 0.5
21 21.09 Ю 2 30 км н/о +9.4 +4.6 72 +8 +8 по сезону 1006.0 1006.0
00 22.09 Ю 4 30 км 1/1
[]
+12.1 +5.0 62 +10 +12 по сезону 1007.1 992.9 0.5
03 22.09 ЮЗ 4 30 км 10/10 1500 м
[]
+13.3 +3.9 53 +12 +12 прохладно 1008.3 1008.0
06 22.09 ЮЗ 6 30 км 10/10 1500 м
[]
+14.5 +3.6 48 +13 +13 холодно 1008.8 1013.8 +8.0
09 22.09 Ю 3 30 км 10/10 1500 м
[]
+13.4 +5.3 58 +12 +12 прохладно 1009.9 1010.0
12 22.09 Ю 2 30 км 10/10 1500 м
[]
+12.3 +5.0 61 +12 +12 по сезону 1010.7 996.4 0.1
15 22.09 Ю 2 30 км н/о +10.8 +5.1 68 +10 +10 по сезону 1011.1 1011.0
18 22.09 Ю 2 27 км н/о +7.0 +5.2 88 +5 +5 прохладно 1011.2 996.8 +15.8
21 22.09 ЮЗ 1 24 км н/о +6.8 +4.8 87 +6 +6 прохладно 1011.5 1012.0
00 23.09 З 2 25 км 8/8
[]
+9.4 +5.9 79 +8 +9 прохладно 1012.6 998.2
03 23.09 З 2 29 км 10/10
[]
+12.5 +6.8 68 +12 +12 прохладно 1013.4 1013.0
06 23.09 З 2 30 км 9/9 1500 м
[]
+17.0 +5.0 45 +17 +18 по сезону 1011.6 1017.6 +6.0
09 23.09 С 3 30 км 9/9
[]
+13.4 +6.0 61 +12 +12 прохладно 1012.7 1013.0
12 23.09 З 1 11 км 8/8 1000 м
[]
+9.2 +6.6 84 +9 +9 прохладно 1014.5 1000.0
15 23.09 С 2 17 км н/о +9.6 +7.2 85 +8 +8 по сезону 1014.5 1015.0
18 23.09 З 2 8000 м н/о +8.1 +6.7 91 +6 +6 по сезону 1014.6 1000.3 +17.1
21 23.09 З 2 4900 м дымка н/о +5.9 +5.3 96 +3 +3 холодно 1015.7 1016.0
00 24.09 З 4 6000 м дымка 10/10
[]
+8.4 +7.6 95 +5 +5 холодно 1016.7 1002.2
03 24.09 З 3 30 км 8/8 600 м
[]
+13.2 +7.9 70 +12 +14 прохладно 1017.5 1018.0
06 24.09 СЗ 3 30 км 8/8 1000 м
[]
+16.3 +7.3 55 +16 +17 по сезону 1016.6 1002.2 +5.7
09 24.09 З 2 30 км {ливн. осадки} 8/8 1000 м
[]
+15.3 +6.6 56 +15 +15 по сезону 1017.7 1018.0
12 24.09 З 1 12 км н/о +9.1 +6.9 86 +8 +8 прохладно 1019.7 1005.1

 

Местоположение метеостанции Harbin (Китай): широта 45.75 долгота 126.76 высота над уровнем моря 143 м.

В архиве по умолчанию представлена погода в Harbin за последнюю неделю. Архивные данные за месяц целиком и за предыдущие месяцы, начиная с января 2011 года, Вы можете получить, выбрав интересующий диапазон дат из раскрывающегося списка и нажав кнопку "Ввод!".


*Определитесь, кто Вы:
робот инопланетянин человек

Внимание! Время в таблицах - всемирное. Для получения местного времени необходимо прибавить поправку, которая в Harbin равна 8 ч.

Смотрите также архив погоды в соседних городах и на ближайших метеорологических станциях:

Погода в Shangzhi (Китай) (111 км)
Погода в Anda (Китай) (132 км)
Погода в Tonghe (Китай) (155 км)
Погода в Qian Gorlos (Китай) (166 км)
Погода в Hailun (Китай) (187 км)
Погода в Changchun (Китай) (239 км)
Погода в Mudanjiang (Китай) (259 км)
Погода в Keshan (Китай) (264 км)
Погода в Tailai (Китай) (268 км)
Погода в Yichun (Китай) (273 км)

Пояснения к столбцам:

Ветер - указаны скорость ветра в м/с - средняя за 10 мин, порывы в срок и между сроками (в фигурных скобках) и направление, откуда дует ветер: С - северный, СВ - северо-восточный, В - восточный, ЮВ - юго-восточный, Ю - южный, ЮЗ - юго-западный, З - западный, СЗ - северо-западный.
Видимость - горизонтальная дальность видимости в метрах или километрах. При видимости от 1 до 10 км при отсутствии осадков обычно наблюдается дымка, при ухудшении видимости до 1 км и менее - туман. В сухую погоду видимость может ухудшаться дымом, пылью или мглою.
Явления - указаны атмосферные явления, наблюдавшиеся в срок или в последний час перед сроком; фигурными скобками обозначены явления, наблюдавшиеся между сроками (за 1-3 часа до срока); квадратными скобками обозначены град или гололедные отложения с указанием их диаметра в мм.
Облачность - указаны через наклонную черту общая и нижняя облачность в баллах и высота нижней границы облаков в метрах; квадратными скобками обозначены формы облаков: Ci - перистые, Cs - перисто-слоистые, Cc - перисто-кучевые, Ac - высококучевые, As - высокослоистые, Sc - слоисто-кучевые, Ns - слоисто-дождевые, Cu - кучевые, Cb - кучево-дождевые. Подробнее классификацию облаков см. в Атласе облаков (PDF).
T - Температура воздуха - температура, измеренная на высоте 2 м над землей.
Td - Температура точки росы - температура, при понижении до которой содержащийся в воздухе водяной пар достигнет насыщения.
f - Относительная влажность воздуха - влажноcть воздуха, измеренная на высоте 2 м над землей.
Te - Эффективная температура - температура, которую ощущает одетый по сезону человек в тени. Характеристика душности погоды. При расчете учитывается влияние влажности воздуха и скорости ветра на теплоощущения человека.
Tes - Эффективная температура на солнце - температура, которую ощущает человек, с поправкой на солнечный нагрев. Характеристика знойности погоды. Зависит от высоты солнца над горизонтом, облачности и скорости ветра. Ночью, в пасмурную погоду, а также при ветре 12 м/с и более поправка равна нулю.
P - Атмосферное давление - приведенное к уровню моря атмосферное давление.
Po - Атмосферное давление - измеренное на уровне метеостанции атмосферное давление.
Tmin - Минимальная температура - минимум температуры воздуха на высоте 2 м над землей.
Tmax - Максимальная температура - максимум температуры воздуха на высоте 2 м над землей.
R - Количество осадков - Количество выпавших осадков за период времени, мм. При наведении курсора мыши на число - период времени, за который выпало указанное количество осадков.
R24 - Количество осадков - Количество выпавших осадков за 24 часа, мм.
S - Снежный покров - Высота снежного покрова, см. При наведении курсора мыши на число - состояние снежного покрова и степень покрытия местности в баллах.